Current weather by "City, St" or "zip code"  
 

Current Conditions: Walnut Ridge Regional Airport, AR

Fair


67.0 F

Last Updated on Oct 21 2021, 11:56 am CDT
Humidity: 47%
Wind Speed: W 12.7 G 18.4 mph
Barometer 30.12 in
Dewpoint: 46.0 F
Visibility: 10.00 mi
Precip: --
Heat Index: NA
Wind Chill: NA
Current conditions at:

Walnut Ridge Regional Airport, AR (KARG)

Lat: 36.12562 Lon: 90.92148

Local Radar Image active severe weather and emergency alerts image image weather storm and storm spotter reports image weather observation monitoring service image
Local
Radar
Active
Alerts
Storm Reports Obs
Monitoring

Sign-up For Email & Text Message Weather Alert Notification Services



Advertise Here

Observation History for Walnut Ridge Regional Airport, AR


Time Wind
(mph)
Vis
(mi)
Weather Precip (in) Temperature (F) Relative
Humidity
Wind
Chill
(F)
Heat
Index
(F)
Pressure
Air Dwpt altimeter
(in)
sea level
(mb)
Rmks
11:56 am CDT W 12.7 G 18.4 10.00 Fair -- 67.0 46.0 47% NA NA 30.12 1019.8
10:56 am CDT NW 13.8 G 21.9 10.00 Fair -- 66.0 46.0 49% NA NA 30.12 1020.1
9:56 am CDT NW 12.7 10.00 Fair -- 65.0 46.0 51% NA NA 30.13 1020.2
8:56 am CDT W 10.4 10.00 Fair -- 62.0 51.1 67% 61 NA 30.12 1020.0
7:56 am CDT NW 10.4 10.00 Fair -- 60.0 54.0 80% 58 NA 30.10 1019.3
6:56 am CDT NW 10.4 10.00 Fair -- 61.0 55.0 81% 60 NA 30.09 1018.9
5:56 am CDT W 10.4 10.00 Fair -- 64.0 61.0 90% NA NA 30.07 1018.4
4:56 am CDT W 8.1 10.00 Fair -- 65.0 61.0 87% NA NA 30.05 1017.5
3:56 am CDT W 4.6 10.00 Mostly Cloudy -- 65.0 60.1 84% NA NA 30.05 1017.4
2:56 am CDT SW 6.9 10.00 Overcast -- 66.0 60.1 81% NA NA 30.05 1017.4
1:56 am CDT S 9.2 10.00 Overcast -- 66.0 60.1 81% NA NA 30.04 1017.3
12:56 am CDT SW 8.1 10.00 Overcast -- 65.0 60.1 84% NA NA 30.05 1017.6
11:56 pm CDT SW 6.9 10.00 Mostly Cloudy -- 64.0 59.0 84% NA NA 30.06 1017.8
10:56 pm CDT S 5.8 8.00 Partly Cloudy -- 61.0 57.0 87% 61 NA 30.07 1018.2
9:56 pm CDT S 8.1 10.00 Fair -- 62.0 57.0 84% 61 NA 30.07 1018.2
8:56 pm CDT S 8.1 10.00 Fair -- 65.0 57.0 76% NA NA 30.06 1018.0
7:56 pm CDT SW 5.8 10.00 Fair -- 66.0 55.9 70% NA NA 30.06 1017.9
6:56 pm CDT S 8.1 10.00 Fair -- 69.0 55.9 63% NA NA 30.05 1017.7
5:56 pm CDT S 11.5 10.00 Fair -- 74.0 57.0 56% NA NA 30.04 1017.3
4:56 pm CDT S 12.7 10.00 Fair -- 78.0 57.0 48% NA NA 30.04 1017.2
3:56 pm CDT S 16.1 10.00 Fair -- 78.0 57.0 48% NA NA 30.05 1017.6
2:56 pm CDT S 15.0 10.00 Fair -- 78.0 59.0 52% NA NA 30.07 1018.2
1:56 pm CDT S 16.1 10.00 Fair -- 77.0 59.0 54% NA NA 30.10 1019.3
12:56 pm CDT SW 15.0 9.00 Fair -- 76.0 59.0 56% NA NA 30.13 1020.2

Regional Weather Observation


Corning Municipal Airport, AR (K4M9)

Fair with Haze
68.0 F

West Plains, West Plains Municipal Airport, MO (KUNO)

Fair
62.0 F

Poplar Bluff, Poplar Bluff Municipal Airport, MO (KPOF)

Fair
67.0 F

Kennett - Kennett Memorial Airport, MO (KTKX)

Fair
70.0 F

Newport, Newport Municipal Airport, AR (KM19)

Fair
70.0 F

Jonesboro, Jonesboro Municipal Airport, AR (KJBR)

Fair
70.0 F

Advertise Here


Advertise Here